User: anonymous   Login
Location: Kalberh�ni
(46.4610°N, 7.2453°E)
Time: 03:45:08
(UTC+00:00)
Language:

ERS-1 Rocket - Orbit

View from above orbital plane
View from above orbital plane
View from above satellite
View from above satellite

Ground track
Ground track

The orbit data is extracted from the following two-line orbital elements,

1 21610U 91050F   21296.78447786  .00000059  00000-0  31971-4 0  9995
2 21610  98.4114   5.5565 0002792 197.3844 271.4143 14.40971537588746
Epoch (UTC): 23 October 2021 18:49:38
Eccentricity: 0.0002792
inclination: 98.4114°
perigee height: 753 km
apogee height: 757 km
right ascension of ascending node: 5.5565°
argument of perigee: 197.3844°
revolutions per day: 14.40971537
mean anomaly at epoch: 271.4143°
orbit number at epoch: 58874

The dashed part of the orbit path shows where the satellite is in the earth's shadow,  

DLR